This is the latest recevied weather packets stored in our database for station/object BARLOW-WX. If no packets are shown the sender has not sent any weather packets the latest 10 day(s).
| Time | Temp. | Humidity | Pressure | Rain* | Wind** | Luminosity | Snow |
|---|---|---|---|---|---|---|---|
| 1777534295 | 4.44° C | 87% | 987.1 hPa | 0 mm | - | - | - |
| 1777533375 | 5° C | 87% | 987.1 hPa | 0 mm | - | - | - |
| 1777532505 | 5° C | 87% | 987.1 hPa | 0 mm | - | - | - |
| 1777531576 | 5.56° C | 90% | 988.1 hPa | 0 mm | - | - | - |
| 1777530695 | 5.56° C | 89% | 987.4 hPa | 0 mm | - | - | - |
| 1777529777 | 5.56° C | 89% | 987.4 hPa | 0 mm | - | - | - |
| 1777528923 | 5.56° C | 89% | 987.4 hPa | 0 mm | - | - | - |
| 1777527975 | 5.56° C | 88% | 986.7 hPa | 0 mm | - | - | - |
| 1777527096 | 5° C | 91% | 987 hPa | 0 mm | - | - | - |
| 1777526175 | 5.56° C | 91% | 987 hPa | 0 mm | - | - | - |
| 1777525307 | 5.56° C | 91% | 987 hPa | 0 mm | - | - | - |
| 1777524375 | 5.56° C | 90% | 986.8 hPa | 0 mm | - | - | - |
| 1777523495 | 5.56° C | 92% | 987.2 hPa | 0 mm | - | - | - |
| 1777522575 | 5.56° C | 92% | 987.2 hPa | 1.02 mm | - | - | - |
| 1777521711 | 5.56° C | 92% | 987.2 hPa | 1.02 mm | - | - | - |
| 1777520776 | 5.56° C | 92% | 986.5 hPa | 0.25 mm | - | - | - |
| 1777519894 | 5.56° C | 91% | 986.2 hPa | 0.25 mm | - | - | - |
| 1777518975 | 6.11° C | 91% | 986.3 hPa | 0 mm | - | - | - |
| 1777518107 | 6.11° C | 91% | 986.3 hPa | 0 mm | - | - | - |
| 1777517175 | 6.11° C | 88% | 986.2 hPa | 0 mm | - | - | - |
| 1777516289 | 6.11° C | 89% | 987.1 hPa | 0 mm | - | - | - |
| 1777515375 | 6.67° C | 89% | 987.1 hPa | 0 mm | - | - | - |
| 1777514502 | 6.67° C | 89% | 987.1 hPa | 0 mm | - | - | - |
| 1777513575 | 6.67° C | 91% | 986.2 hPa | 0 mm | - | - | - |
| 1777511776 | 6.67° C | 91% | 986.2 hPa | 0.25 mm | - | - | - |
* Rain latest hour (hover to see other rain measurements)
** Current wind speed in m/s (hover to see current wind gust speed)